This is the latest recevied weather packets stored in our database for station/object KQ7A. If no packets are shown the sender has not sent any weather packets the latest 10 day(s).
| Time | Temp. | Humidity | Pressure | Rain* | Wind** | Luminosity | Snow |
|---|---|---|---|---|---|---|---|
| 1787963898 | 17.78° C | 82% | 1022.2 hPa | 0 mm | - | 59 W/m² | - |
| 1787963593 | 17.78° C | 81% | 1022.3 hPa | 0 mm | - | 78 W/m² | - |
| 1787963289 | 17.78° C | 81% | 1022.3 hPa | 0 mm | - | 108 W/m² | - |
| 1787962988 | 17.78° C | 81% | 1022.1 hPa | 0 mm | - | 103 W/m² | - |
| 1787962682 | 17.78° C | 81% | 1022.3 hPa | 0 mm | - | 109 W/m² | - |
| 1787962376 | 17.78° C | 80% | 1022.3 hPa | 0 mm | - | 120 W/m² | - |
| 1787962070 | 17.78° C | 81% | 1022.2 hPa | 0 mm | - | 146 W/m² | - |
| 1787961770 | 17.78° C | 81% | 1022.2 hPa | 0 mm | - | 179 W/m² | - |
| 1787961469 | 17.78° C | 83% | 1022.4 hPa | 0 mm | - | 174 W/m² | - |
| 1787961163 | 17.22° C | 84% | 1022.4 hPa | 0 mm | - | 122 W/m² | - |
| 1787960862 | 17.22° C | 84% | 1022.7 hPa | 0 mm | - | 97 W/m² | - |
| 1787960558 | 16.67° C | 85% | 1022.3 hPa | 0 mm | - | 108 W/m² | - |
| 1787960256 | 16.67° C | 86% | 1022.7 hPa | 0 mm | - | 87 W/m² | - |
| 1787959956 | 16.67° C | 87% | 1022.4 hPa | 0 mm | - | 87 W/m² | - |
| 1787959651 | 16.67° C | 86% | 1022.7 hPa | 0 mm | - | 113 W/m² | - |
| 1787959351 | 16.67° C | 85% | 1022.8 hPa | 0 mm | - | 100 W/m² | - |
| 1787959046 | 17.22° C | 86% | 1022.7 hPa | 0 mm | - | 115 W/m² | - |
| 1787958741 | 17.22° C | 86% | 1022.7 hPa | 0 mm | - | 138 W/m² | - |
| 1787958436 | 17.22° C | 85% | 1022.7 hPa | 0 mm | - | 201 W/m² | - |
| 1787958133 | 16.67° C | 87% | 1022.9 hPa | 0 mm | - | 344 W/m² | - |
| 1787957831 | 16.67° C | 87% | 1022.9 hPa | 0 mm | - | 267 W/m² | - |
| 1787957525 | 16.67° C | 87% | 1022.8 hPa | 0 mm | - | 129 W/m² | - |
| 1787957220 | 16.67° C | 87% | 1022.8 hPa | 0 mm | - | 173 W/m² | - |
| 1787956915 | 16.67° C | 86% | 1023 hPa | 0 mm | - | 122 W/m² | - |
| 1787956615 | 16.67° C | 86% | 1023.1 hPa | 0 mm | - | 122 W/m² | - |
* Rain latest hour (hover to see other rain measurements)
** Current wind speed in m/s (hover to see current wind gust speed)